Location: Ajisawe
(8.4333°N, 4.3833°E)
Time: 05:33:00
(UTC+00:00)

A-11 Canister half - Pass Details

Date: 21 April 2021
Orbit: 1514 x 1685 km, 47.2° (Epoch: 12 May)

Event Time Altitude Azimuth Distance (km) Brightness Sun altitude
Rises 02:27:41 0° 341° (NNW) 4,847 11.7 -43.9°
Reaches altitude 10° 02:32:17 10° 360° (N) 3,889 11.3 -42.9°
Maximum altitude 02:38:38 18° 40° (NE) 3,297 11.2 -41.4°
Drops below altitude 10° 02:45:00 10° 80° (E) 3,940 11.8 -40.0°
Sets 02:49:38 0° 97° (E) 4,934 12.4 -38.9°
